Regional Weather Roundup
Issued by NWS

Home | Current Version | Previous Version | Text Only | Print | Product List | Glossary Off
Versions: 1 2 3 4 5 6 7 8 9 10 11 12 13 14 15 16 17 18 19 20 21 22 23 24 25 26 27 28 29 30 31 32 33 34 35 36 37 38 39 40 41 42 43 44 45 46 47 48 49 50

000
ASUS43 KLOT 232108
RWRIL

ILLINOIS REGIONAL WEATHER ROUNDUP
NATIONAL WEATHER SERVICE CHICAGO/ROMEOVILLE IL
400 PM CDT SUN APR 23 2017

NOTE: "FAIR" INDICATES FEW OR NO CLOUDS BELOW 12,000 FEET WITH NO
SIGNIFICANT WEATHER AND/OR OBSTRUCTIONS TO VISIBILITY.

* THESE STATIONS ARE NOT UNDER NWS QUALITY CONTROL. THEY ALSO MAY NOT
  REPORT WEATHER SUCH AS PRECIPITATION OR FOG.

ILZ001-002-007-009-015-016-024-232200-
NORTHWEST ILLINOIS

CITY           SKY/WX    TMP DP  RH WIND       PRES   REMARKS
MOLINE         SUNNY     71  30  21 VRB3      30.03F
STERLING*      SUNNY     70  35  27 E5        30.04F
SAVANNA*       SUNNY     70  34  26 SW3       30.04F
$$

ILZ003-004-008-010-011-017-018-232200-
NORTH CENTRAL ILLINOIS

CITY           SKY/WX    TMP DP  RH WIND       PRES   REMARKS
ROCKFORD       MOSUNNY   72  35  25 W3        30.04F
FREEPORT*      SUNNY     69  35  28 SW5       30.05F
ROCHELLE*      SUNNY     69  33  26 CALM      30.04F
DE KALB*       SUNNY     69  31  24 CALM      30.04F
PERU*          SUNNY     69  27  20 NE5       30.04F
$$

ILZ005-006-012>014-019>023-232200-
NORTHEAST ILLINOIS

CITY           SKY/WX    TMP DP  RH WIND       PRES   REMARKS
CHICAGO-OHARE  SUNNY     71  32  23 E9        30.03F
CHICAGO-MIDWAY SUNNY     69  32  25 E13       30.05F
AURORA         SUNNY     72  30  21 VRB3      30.03F
LANSING*       SUNNY     67  34  30 NE8       30.06F
JOLIET*        SUNNY     71  30  22 N5        30.03F
WAUKEGAN       SUNNY     66  36  32 SE9       30.03F
DUPAGE AIRPORT SUNNY     71  30  21 CALM      30.02F
KANKAKEE*      SUNNY     71  23  16 NE6       30.05S
WHEELING       SUNNY     69  33  26 NE8       30.04F
MORRIS*        SUNNY     72  28  19 CALM      30.02F
ROMEOVILLE*    SUNNY     70  35  28 CALM      30.03F
NORTHERLY ISL    N/A     58  44  60 SE1         N/A
$$

LMZ740>746-232200-
SOUTHERN LAKE MICHIGAN

STATION/POSITION SKY/WX   TEMP    WIND        PRES    VSBY  WAVE
                          AIR SEA DIR/SP/G                  HT/PER
                          (F)     (DEG/KT/KT) (MB)    (MI)  (FT/S)
HARRISON CRIB              54     140/ 10/ 11   N/A
BURNHAM HARBOR             59     130/  6/  7   N/A
CALUMET HARBOR             59      90/  8/ 10 1017.5F
BURNS HARBOR               54      40/  3/  4 1018.6F
MICHIGAN CITY              60     360/  3/  3   N/A
ST. JOSEPH                 53 54  320/  2/  4 1018.6          0
$$

ILZ025>027-034>036-040-047-049-050-058-095>099-232200-
WEST-CENTRAL ILLINOIS

CITY           SKY/WX    TMP DP  RH WIND       PRES   REMARKS
QUINCY         SUNNY     71  25  17 VRB6      30.04F
GALESBURG*     SUNNY     71  31  23 NE3       30.03F
MACOMB*        SUNNY     72  29  20 NE5       30.06F
JACKSONVILLE*  SUNNY     70  25  18 NW6       30.04F
PITTSFIELD*    SUNNY     70  28  20 N9        30.06F
$$

ILZ028>032-037-038-041>044-048-051>054-059>061-232200-
CENTRAL ILLINOIS

CITY           SKY/WX    TMP DP  RH WIND       PRES   REMARKS
PONTIAC        SUNNY     71  22  15 CALM      30.04F
BLOOMINGTON    SUNNY     72  26  18 NE14G20   30.04F
DECATUR        SUNNY     71  34  25 NE10G22   30.02F
PEORIA         SUNNY     71  28  20 VRB6      30.04F
LACON*         SUNNY     71  32  24 N6        30.03F
LINCOLN*       SUNNY     73  33  23 E8        30.03F
SPRINGFIELD    SUNNY     73  29  19 E10       30.03F
TAYLORVILLE    SUNNY     72  28  19 NE6       30.02F
$$

ILZ033-039-045-046-055>057-062-063-232200-
EAST-CENTRAL ILLINOIS

CITY           SKY/WX    TMP DP  RH WIND       PRES   REMARKS
CHAMPAIGN      SUNNY     73  29  19 N14       30.02F
RANTOUL*       SUNNY     73  27  18 NE14G20   30.03F
MATTOON        SUNNY     71  28  20 NE18G29   29.99F
PARIS*         SUNNY     72  29  20 NE13G21   30.01F
$$

ILZ079-100>102-232200-
SOUTHWEST ILLINOIS

CITY           SKY/WX    TMP DP  RH WIND       PRES   REMARKS
ALTON          SUNNY     70  30  23 N16       30.02F
BELLEVILLE     SUNNY     73  30  20 N14G21    29.98F
CAHOKIA*       SUNNY     73  28  18 N20       30.01F
SPARTA*        SUNNY     69  36  29 N9G22     29.99F
$$

ILZ064>066-069>071-074>076-080>082-084>086-088>090-092>094-232200-
SOUTH-CENTRAL ILLINOIS

CITY           SKY/WX    TMP DP  RH WIND       PRES   REMARKS
CARBONDALE     SUNNY     68  41  37 N14       29.96F
CAIRO*         SUNNY     67  43  41 N14G22    29.92F
EFFINGHAM*     SUNNY     73  32  22 N12G22    29.99F
MARION         SUNNY     70  37  30 N16G24    29.96F
MT. VERNON     SUNNY     71  34  25 NE12G20   29.96F
CENTRALIA*     SUNNY     72  38  30 NE10G17   29.96F
SALEM*         SUNNY     72  26  17 N13G23    29.97F
METROPOLIS*    MOSUNNY   69  42  38 N16G24    29.92S
$$

ILZ067-068-072-073-078-083-087-091-232200-
SOUTHEAST ILLINOIS

CITY           SKY/WX    TMP DP  RH WIND       PRES   REMARKS
LAWRENCEVILLE  SUNNY     72  33  24 NE20G26   29.94F
FLORA*         SUNNY     72  32  22 NE16G23   29.97S
FAIRFIELD*     SUNNY     70  35  27 N12       29.94F
HARRISBURG*    SUNNY     69  42  37 N13G20    29.94F
ROBINSON*      SUNNY     71  30  21 NE16G23   29.96F
CARMI*         SUNNY     70  39  32 N16G24    29.92F
$$

ABBREVIATIONS USED IN REMARKS
   TC - TEMPERATURE IN CELSIUS
  WCI - WIND CHILL INDEX
   HX - HEAT INDEX
  VSB - VISIBILITY
$$





USA.gov is the U.S. government's official web portal to all federal, state and local government web resources and services.